sat.trackr.live / text

‹ back to catalog

STARLINK-32041

NORAD 60202 · 2024-124V

PAYLOAD ACTIVE UNKNOWN

§ Identity

Operator
Country
US
Launch date
2024-07-03
Launch site
AFETR
Launch vehicle
Mass (kg)
RCS (m²)

Purposes: comms

External: N2YO · Heavens-Above · Gunter

§ Orbital elements

Epoch: 2026-05-24T21:17:57.860736Z

Period
94.01 min
Inclination
53.1607°
Eccentricity
0.0001008
Mean motion
15.31697445 rev/d
Perigee alt
470.1 km
Apogee alt
471.4 km
Semi-major
6,848.9 km
B*
-1.1336e-6
RAAN
328.4404°
Arg perigee
89.1752°
Mean anomaly
270.9364°
Rev number
10,716

§ Raw data

STARLINK-320411 60202U 24124V   26144.88747524 -.00000400  00000+0 -11336-5 0  99992 60202  53.1607 328.4404 0001008  89.1752 270.9364 15.31697445107161

JSON: /api/v1/satellites/60202 · /tle

For live sub-satellite position, see the globe view (requires WebGL).

§ Visibility from observer

Set your observer location to see the next 7 days of passes ≥ 10°. The values pass through the URL so the page stays shareable.

No JS? Fill the form by hand. The geolocation button needs JavaScript.